EW9372 Weather Reports


Display with metric or nautical units.
time (UTC)temp
F
wind
direction
speed
MPH
gust
MPH
rain 1hr
in
rain 24hr
in
rain mn
in
humidity
%
barometer
mb
20260502221745 77 238 2.0 7.0 0.00 0.00 0.00 47 1009.8
20260502221246 76 257 2.0 7.0 0.00 0.00 0.00 50 1010.0
20260502220746 76 192 3.0 7.0 0.00 0.00 0.00 50 1010.2
20260502220242 75 236 2.0 1.0 0.00 0.00 0.00 50 1010.1
20260502214842 74 182 3.0 10.0 0.00 0.00 0.00 51 1010.3
20260502214346 74 239 2.0 1.0 0.00 0.00 0.00 51 1010.4
20260502214339 74 213 3.0 10.0 0.00 0.00 0.00 51 1010.2
20260502212922 75 212 3.0 11.0 0.00 0.00 0.00 51 1010.5
20260502211920 75 234 3.0 11.0 0.00 0.00 0.00 49 1010.5
20260502211418 75 245 3.0 3.0 0.00 0.00 0.00 51 1010.6
20260502210331 74 202 3.0 9.0 0.00 0.00 0.00 50 1010.7
20260502205829 75 237 2.0 9.0 0.00 0.00 0.00 53 1010.7
20260502205332 74 197 3.0 7.0 0.00 0.00 0.00 54 1010.7
20260502204827 74 236 4.0 7.0 0.00 0.00 0.00 54 1010.7
20260502204327 73 228 3.0 6.0 0.00 0.00 0.00 53 1010.8
20260502202712 73 169 3.0 9.0 0.00 0.00 0.00 54 1010.8
20260502202704 72 223 3.0 9.0 0.00 0.00 0.00 53 1010.8
20260502201703 72 278 3.0 9.0 0.00 0.00 0.00 54 1010.9
20260502201201 71 226 3.0 4.0 0.00 0.00 0.00 56 1010.8
20260502200635 69 202 2.0 6.0 0.00 0.00 0.00 58 1010.9
20260502195910 69 155 2.0 4.0 0.00 0.00 0.00 58 1010.9
20260502194635 69 210 2.0 6.0 0.00 0.00 0.00 58 1011.0
20260502194129 69 200 2.0 6.0 0.00 0.00 0.00 57 1010.9
20260502193629 69 213 2.0 5.0 0.00 0.00 0.00 57 1011.0
20260502193132 70 148 2.0 6.0 0.00 0.00 0.00 58 1011.0
20260502193128 70 190 2.0 6.0 0.00 0.00 0.00 59 1010.9
20260502192126 70 194 2.0 6.0 0.00 0.00 0.00 59 1011.1
20260502191627 69 190 2.0 1.0 0.00 0.00 0.00 60 1011.1
20260502190129 67 182 3.0 1.0 0.00 0.00 0.00 62 1011.0
20260502184855 66 215 1.0 5.0 0.00 0.00 0.00 66 1011.0
20260502184354 65 182 2.0 5.0 0.00 0.00 0.00 66 1010.9
20260502183846 65 197 2.0 2.0 0.00 0.00 0.00 65 1010.8
20260502183841 65 202 2.0 5.0 0.00 0.00 0.00 66 1010.9
20260502182512 65 192 1.0 5.0 0.00 0.00 0.00 66 1010.9
20260502181503 64 198 3.0 7.0 0.00 0.00 0.00 67 1011.0
20260502180955 64 241 3.0 7.0 0.00 0.00 0.00 66 1011.1
20260502180456 65 194 2.0 5.0 0.00 0.00 0.00 67 1011.1
20260502164039 62 195 4.0 9.0 0.00 0.00 0.00 69 1010.5
20260502164034 62 223 3.0 9.0 0.00 0.00 0.00 71 1010.6
20260502163034 62 236 3.0 9.0 0.00 0.00 0.00 69 1010.4
20260502162523 63 260 2.0 5.0 0.00 0.00 0.00 69 1010.4
20260502162027 62 234 2.0 3.0 0.00 0.00 0.00 69 1010.4
20260502162021 63 213 2.0 4.0 0.00 0.00 0.00 69 1010.4
20260502160723 62 202 2.0 6.0 0.00 0.00 0.00 69 1010.3
20260502160445 62 232 3.0 6.0 0.00 0.00 0.00 69 1010.4
20260502152259 59 166 3.0 6.0 0.00 0.00 0.00 74 1010.1
20260502151755 59 182 2.0 6.0 0.00 0.00 0.00 75 1010.0
20260502151306 59 178 2.0 1.0 0.00 0.00 0.00 75 1010.0
20260502130413 55 207 1.0 3.0 0.00 0.00 0.00 79 1009.1
20260502123201 55 214 1.0 3.0 0.00 0.00 0.00 79 1008.9
20260502122702 55 211 1.0 4.0 0.00 0.00 0.00 78 1009.0
20260502122657 55 200 1.0 4.0 0.00 0.00 0.00 79 1009.0
20260502121659 55 205 1.0 2.0 0.00 0.00 0.00 79 1009.0
20260502121655 55 203 1.0 4.0 0.00 0.00 0.00 79 1009.0
20260502120642 55 186 1.0 1.0 0.00 0.00 0.00 79 1008.9
20260502115249 56 208 2.0 5.0 0.00 0.00 0.00 78 1009.0
20260502114749 56 197 2.0 2.0 0.00 0.00 0.00 78 1009.1
20260502113320 56 207 2.0 6.0 0.00 0.00 0.00 78 1009.0
20260502112818 56 198 2.0 4.0 0.00 0.00 0.00 78 1008.9
20260502112320 56 167 1.0 4.0 0.00 0.00 0.00 78 1009.0
20260502111819 56 180 1.0 5.0 0.00 0.00 0.00 79 1009.0
20260502111319 57 178 2.0 5.0 0.00 0.00 0.00 79 1009.0
20260502110818 57 186 1.0 5.0 0.00 0.00 0.00 79 1009.2
20260502110319 57 200 1.0 5.0 0.00 0.00 0.00 80 1009.2
20260502105817 57 203 1.0 5.0 0.00 0.00 0.00 80 1009.2
20260502105317 57 196 2.0 5.0 0.00 0.00 0.00 80 1009.3
20260502104821 57 194 3.0 6.0 0.00 0.00 0.00 80 1009.3
20260502104816 57 184 2.0 6.0 0.00 0.00 0.00 80 1009.3
20260502102726 58 196 2.0 6.0 0.00 0.00 0.00 78 1009.2
20260502102227 58 190 3.0 6.0 0.00 0.00 0.00 78 1009.2
20260502101740 58 184 2.0 6.0 0.00 0.00 0.00 77 1009.2
20260502101725 58 198 4.0 6.0 0.00 0.00 0.00 78 1009.2
20260502101128 59 169 1.0 3.0 0.00 0.00 0.00 76 1009.3
20260502091119 60 214 3.0 2.0 0.00 0.00 0.00 75 1009.5
20260502071404 63 196 3.0 6.0 0.00 0.00 0.00 73 1010.0
20260502070900 64 193 3.0 6.0 0.00 0.00 0.00 72 1010.0
20260502070355 64 204 3.0 6.0 0.00 0.00 0.00 72 1010.0
20260502065858 64 185 3.0 7.0 0.00 0.00 0.00 72 1010.0
20260502065356 65 182 2.0 7.0 0.00 0.00 0.00 71 1010.0
20260502064855 65 206 2.0 6.0 0.00 0.00 0.00 72 1010.0
20260502064358 65 142 2.0 6.0 0.00 0.00 0.00 72 1009.9
20260502064354 65 165 2.0 6.0 0.00 0.00 0.00 72 1010.0
20260502063355 65 153 2.0 6.0 0.00 0.00 0.00 71 1009.9
20260502062859 66 198 2.0 3.0 0.00 0.00 0.00 71 1009.9
20260502062852 66 119 2.0 5.0 0.00 0.00 0.00 72 1009.9
20260502061231 66 188 2.0 6.0 0.00 0.00 0.00 71 1010.0
20260502060733 66 199 2.0 6.0 0.00 0.00 0.00 70 1010.0
20260502060227 67 180 2.0 5.0 0.00 0.00 0.00 70 1010.0
20260502055725 67 198 3.0 5.0 0.00 0.00 0.00 70 1010.0
20260502055225 67 185 3.0 5.0 0.00 0.00 0.00 70 1010.0
20260502054725 67 209 3.0 3.0 0.00 0.00 0.00 69 1010.1
20260502053201 68 198 2.0 5.0 0.00 0.00 0.00 68 1009.9
20260502052658 68 186 2.0 5.0 0.00 0.00 0.00 68 1010.0
20260502052157 68 178 2.0 5.0 0.00 0.00 0.00 67 1010.0
20260502051719 69 165 2.0 5.0 0.00 0.00 0.00 67 1010.1
20260502051151 69 180 2.0 2.0 0.00 0.00 0.00 66 1010.0
20260502045617 70 176 1.0 4.0 0.00 0.00 0.00 63 1010.1
20260502045117 70 162 1.0 4.0 0.00 0.00 0.00 62 1010.0
20260502044618 71 171 1.0 4.0 0.00 0.00 0.00 62 1010.0
20260502044122 71 206 1.0 3.0 0.00 0.00 0.00 61 1010.0
20260502044117 71 198 1.0 3.0 0.00 0.00 0.00 62 1010.0
20260502043113 71 217 1.0 3.0 0.00 0.00 0.00 61 1009.9
20260502042610 72 223 1.0 4.0 0.00 0.00 0.00 61 1009.9
20260502042108 72 225 1.0 4.0 0.00 0.00 0.00 60 1009.9
20260502041603 72 229 1.0 3.0 0.00 0.00 0.00 59 1009.6
20260502041101 73 205 2.0 3.0 0.00 0.00 0.00 59 1009.5
20260502040606 73 229 2.0 2.0 0.00 0.00 0.00 58 1009.5
20260502035951 74 223 2.0 5.0 0.00 0.00 0.00 58 1009.6
20260502034934 74 223 2.0 5.0 0.00 0.00 0.00 59 1009.5
20260502034439 74 229 3.0 5.0 0.00 0.00 0.00 58 1009.4
20260502033934 74 215 2.0 5.0 0.00 0.00 0.00 58 1009.3
20260502033433 75 229 2.0 5.0 0.00 0.00 0.00 58 1009.2
20260502032936 75 238 2.0 4.0 0.00 0.00 0.00 58 1009.1
20260502032439 75 229 3.0 4.0 0.00 0.00 0.00 57 1009.2
20260502031934 76 245 3.0 3.0 0.00 0.00 0.00 57 1009.1
20260502030602 76 236 4.0 7.0 0.00 0.00 0.00 56 1009.0
20260502030104 77 240 3.0 7.0 0.00 0.00 0.00 56 1009.0
20260502025603 77 230 2.0 6.0 0.00 0.00 0.00 56 1008.9
20260502025102 78 228 1.0 4.0 0.00 0.00 0.00 55 1008.9
20260502024559 78 225 1.0 4.0 0.00 0.00 0.00 55 1008.8
20260502024103 78 229 1.0 0.0 0.00 0.00 0.00 55 1008.8
20260502022721 79 217 2.0 5.0 0.00 0.00 0.00 53 1008.9
20260502022219 79 234 1.0 5.0 0.00 0.00 0.00 52 1009.0
20260502021731 80 222 1.0 3.0 0.00 0.00 0.00 52 1009.0
20260502021727 80 221 1.0 3.0 0.00 0.00 0.00 52 1009.0
20260502020717 80 227 1.0 3.0 0.00 0.00 0.00 51 1008.9
20260502020156 80 232 1.0 0.0 0.00 0.00 0.00 51 1009.0
20260502015727 81 192 0.0 3.0 0.00 0.00 0.00 50 1009.1
20260502014224 81 176 1.0 3.0 0.00 0.00 0.00 50 1009.2
20260502014219 82 176 1.0 0.0 0.00 0.00 0.00 49 1009.2
20260502012223 83 205 1.0 4.0 0.00 0.00 0.00 46 1009.3
20260502011723 83 187 0.0 0.0 0.00 0.00 0.00 46 1009.4
20260502011223 83 161 0.0 0.0 0.00 0.00 0.00 46 1009.4
20260502010723 83 163 0.0 1.0 0.00 0.00 0.00 45 1009.3
20260502010222 83 128 0.0 3.0 0.00 0.00 0.00 46 1009.2
20260502005722 83 153 0.0 3.0 0.00 0.00 0.00 46 1009.3
20260502005219 83 158 0.0 0.0 0.00 0.00 0.00 47 1009.4
20260502004717 83 157 0.0 1.0 0.00 0.00 0.00 47 1009.4
20260502004208 83 139 0.0 1.0 0.00 0.00 0.00 47 1009.4
20260502003702 83 160 0.0 2.0 0.00 0.00 0.00 46 1009.6
20260502003145 83 160 0.0 2.0 0.00 0.00 0.00 46 1009.6
20260502002642 83 81 0.0 2.0 0.00 0.00 0.00 46 1009.6
20260502002142 83 171 0.0 2.0 0.00 0.00 0.00 45 1009.6
20260502001647 82 150 0.0 0.0 0.00 0.00 0.00 47 1009.6
20260502000601 83 182 0.0 3.0 0.00 0.00 0.00 45 1009.8
20260502000557 82 121 0.0 2.0 0.00 0.00 0.00 46 1009.6
20260501235558 83 180 0.0 3.0 0.00 0.00 0.00 46 1009.7
20260501235058 83 181 0.0 2.0 0.00 0.00 0.00 45 1009.7
20260501234556 83 161 0.0 0.0 0.00 0.00 0.00 46 1009.7
20260501234550 85 162 0.0 2.0 0.00 0.00 0.00 44 1009.8
20260501233529 85 165 0.0 2.0 0.00 0.00 0.00 44 1009.8
20260501233022 85 174 0.0 2.0 0.00 0.00 0.00 44 1009.9
20260501232515 84 221 0.0 2.0 0.00 0.00 0.00 43 1010.1
20260501232014 84 228 0.0 0.0 0.00 0.00 0.00 42 1010.1
20260501231225 85 185 1.0 4.0 0.00 0.00 0.00 43 1010.2
20260501230213 85 232 0.0 3.0 0.00 0.00 0.00 43 1010.3
20260501225701 84 228 0.0 3.0 0.00 0.00 0.00 44 1010.4
20260501225203 84 245 0.0 5.0 0.00 0.00 0.00 43 1010.5
20260501224635 85 248 1.0 5.0 0.00 0.00 0.00 41 1010.7
20260501224129 85 5 0.0 4.0 0.00 0.00 0.00 42 1010.7
20260501223627 85 211 0.0 2.0 0.00 0.00 0.00 43 1010.8
20260501223129 85 204 0.0 3.0 0.00 0.00 0.00 42 1010.9
20260501223123 84 168 0.0 3.0 0.00 0.00 0.00 45 1011.0
20260501222122 84 223 1.0 6.0 0.00 0.00 0.00 43 1011.1